This demonstration page uses our WeatherBlox Daily Observations layout. Learn more.

Left ArrowRight Arrow

Hourly Observations for February 28, 2019

Temp ( °F °C ) Dew Point ( °F °C ) Humidity (%) Winds ( mph kmh ) Pressure ( in mb ) Visibility ( mi km ) Precip ( " mm )
12:53 am 00:53 Cloudy 34 1.1 26 -3.3 73 73 NNW 9 15 30.17 1022 8 12.87472 N/A
1:53 am 01:53 Cloudy 33 0.6 25 -3.9 72 72 NNW 10 17 30.18 1022 7 11.26538 N/A
2:53 am 02:53 Cloudy 32 undefined 24 -4.4 73 73 N 7 11 30.19 1022 8 12.87472 N/A
3:53 am 03:53 Cloudy 32 undefined 25 -3.9 75 75 N 6 9 30.18 1022 7 11.26538 N/A
4:53 am 04:53 Cloudy 31 -0.6 24 -4.4 76 76 N 7 11 30.19 1022 8 12.87472 N/A
5:53 am 05:53 Cloudy 31 -0.6 24 -4.4 76 76 N 3 6 30.22 1023 9 14.48406 N/A
6:53 am 06:53 Cloudy 31 -0.6 24 -4.4 76 76 N 7 11 30.22 1023 9 14.48406 N/A
7:53 am 07:53 Cloudy 31 -0.6 24 -4.4 76 76 NNE 7 11 30.22 1023 8 12.87472 N/A
8:53 am 08:53 Cloudy 32 undefined 25 -3.9 75 75 ENE 3 6 30.23 1024 8 12.87472 N/A
9:53 am 09:53 Cloudy 33 0.6 23 -5 66 66 E 9 15 30.22 1024 10 16.0934 N/A
10:53 am 10:53 Mostly Cloudy 36 2.2 24 -4.4 62 62 E 12 19 30.22 1023 10 16.0934 N/A
11:13 am 11:13 Mostly Cloudy 36 2.2 24 -4.4 62 62 ENE 12 19 30.23 1024 10 16.0934 N/A
11:53 am 11:53 Cloudy 35 1.7 23 -5 61 61 E 12 19 30.21 1023 10 16.0934 N/A
12:53 pm 12:53 Cloudy 35 1.7 23 -5 61 61 E 12 19 30.17 1022 10 16.0934 N/A
1:53 pm 13:53 Cloudy 37 2.8 23 -5 57 57 ENE 13 20 30.15 1021 10 16.0934 N/A
2:53 pm 14:53 Cloudy 36 2.2 22 -5.6 57 57 ENE 8 13 30.15 1021 10 16.0934 N/A
3:53 pm 15:53 Cloudy 36 2.2 23 -5 59 59 NE 6 9 30.15 1021 9 14.48406 N/A
4:51 pm 16:51 Cloudy with Light Snow 34 1 27 -3 75 75 ENE 8 13 30.16 1021 2 3.21868 N/A
4:53 pm 16:53 Cloudy with Light Snow 33 0.6 26 -3.3 75 75 ENE 9 15 30.15 1021 1.75 2.816345 N/A
5:02 pm 17:02 Cloudy with Light Snow 33 0.6 27 -2.8 78 78 ENE 9 15 30.16 1021 1.25 2.011675 N/A
5:18 pm 17:18 Cloudy with Light Snow 33 0.6 28 -2.2 82 82 ENE 5 7 30.15 1021 1.75 2.816345 N/A
5:29 pm 17:29 Cloudy with Light Snow 32 undefined 28 -2.2 85 85 E 7 11 30.15 1021 1.5 2.41401 N/A
5:53 pm 17:53 Mostly Cloudy with Light Snow 32 undefined 28 -2.2 85 85 E 7 11 30.13 1020 0.75 1.207005 0.01 0.254
6:42 pm 18:42 Cloudy with Light Snow 31 -0.6 28 -2.2 89 89 NE 7 11 30.17 1022 1.5 2.41401 0.03 0.762
6:50 pm 18:50 Cloudy with Light Snow 30 -1 28 -2 93 93 ENE 7 11 30.17 1022 1.75 2.816345 0.03 0.762
6:53 pm 18:53 Cloudy with Light Snow 31 -0.6 28 -2.2 89 89 ENE 6 9 30.15 1021 1.5 2.41401 0.04 1.016
7:05 pm 19:05 Cloudy with Light Snow 31 -0.6 27 -2.8 85 85 ENE 7 11 30.17 1022 2 3.21868 N/A
7:23 pm 19:23 Cloudy with Light Snow 30 -1.1 27 -2.8 88 88 ENE 7 11 30.17 1022 2.5 4.02335 N/A
7:32 pm 19:32 Cloudy with Light Snow 31 -0.6 27 -2.8 85 85 ENE 6 9 30.18 1022 3 4.82802 N/A
7:47 pm 19:47 Cloudy with Light Snow 30 -1 27 -3 86 86 ENE 8 13 30.18 1022 1.75 2.816345 N/A
7:53 pm 19:53 Cloudy with Light Snow 30 -1.1 27 -2.8 88 88 ENE 7 11 30.16 1021 1.5 2.41401 N/A
7:58 pm 19:58 Cloudy with Light Snow 30 -1.1 27 -2.8 88 88 ENE 10 17 30.17 1022 1.75 2.816345 0.01 0.254
8:00 pm 20:00 Cloudy with Light Snow 30 -1.1 27 -2.8 88 88 ENE 8 13 30.17 1022 2 3.21868 0.01 0.254
8:37 pm 20:37 Cloudy with Light Snow 30 -1.1 27 -2.8 88 88 NE 7 11 30.18 1022 4 6.43736 0.01 0.254
8:53 pm 20:53 Cloudy with Light Snow 30 -1.1 27 -2.8 88 88 ENE 7 11 30.15 1021 3 4.82802 0.01 0.254
9:53 pm 21:53 Cloudy 31 -0.6 27 -2.8 85 85 NE 7 11 30.14 1021 9 14.48406 0.01 0.254
10:13 pm 22:13 Cloudy 31 -0.6 27 -2.8 85 85 NE 5 7 30.17 1022 8 12.87472 N/A
10:53 pm 22:53 Cloudy 31 -0.6 26 -3.3 82 82 NE 6 9 30.15 1021 10 16.0934 N/A
11:53 pm 23:53 Cloudy 31 -0.6 26 -3.3 82 82 ENE 5 7 30.15 1021 10 16.0934 N/A

Powered by AerisWeather